Showing default

ALOUETTE 2, 1804

Orbit data source: Space-Track

ALOUETTE 2, 1804 is a payload satellite owned by DRTE (CA) in LEO that was launched on Mon, 29 Nov 1965 UTC via a THOR SLV-2 AGENA B launch vehicle from the Air Force Western Test Range (AFWTR). Payload-class satellites include a variety of spacecraft equipped with specific instruments for various scientific and technological missions. These include communications satellites like Starlink; space stations such as the ISS; scientific satellites like the Hubble; Earth observation satellites from companies like Planet Labs, Umbra, and HawkEye 360; GPS; miniature CubeSats for education and research; and military/defense satellites.

Loading next visibility...
Identifier
1804, 1965-098A
Orbit
LEO
Country
Flag of CACA
Related business
Manufacturer
DEHAVT/RCAV
Mission
Spacecraft
Bus & Motor
ALOUETTE, Unknown motor
Mass
145 kg wet, 145 kg dry
Launch date (UTC)
1965-11-29 (61 years ago)
Launch vehicle
THOR SLV-2 AGENA B
Launch site
Air Force Western Test Range (AFWTR)
Object type
Payload
Rocket body
Debris
Shape & HBR
ELL + ANT, 36.5 m
Radar Cross Section
Large (>1 m²)

Expand to show TLE details & history
Last TLE update: 1 day ago

TLE from 1 day ago
0 ALOUETTE 2
1 01804U 65098A   26247.33490210  .00000462  00000-0  14350-3 0  9992
2 01804  79.7984 209.3134 1330809  72.0732 302.0658 12.28411801688998
Epoch: 2026-09-04T08:02Z
TLE epoch observation values (Epoch: 2026-09-04T08:02:15.541Z)
Latitude
0.00007°
Longitude
105.28845°
Altitude
1,109.666 km
Speed
7.501 km/s
True Right ascension
13h 57m 15s
True Declination
0° 00' 00"
Sunlit
Object was in daylight at epoch
Visualization orbit readout
Latitude
Unknown
Longitude
Unknown
Altitude
Unknown
Speed
Unknown
Apparent Right ascension
Unknown
Apparent Declination
Unknown
Sunlit
N/A
Visualization observer readout
Local Sidereal Time
09:25:52
Azimuth
Unknown
Elevation
Unknown
Doppler factor
Unknown
Orbital elements
Apogee altitude
2,609.09 km
Perigee altitude
497.981 km
Semi-major axis
7,931.672 km
Eccentricity
0.13308
Inclination
79.7984°
RAAN
209.3134°
Arg. of periapsis
72.0732°
True anomaly
288.03881°
Mean anomaly
302.0658°
Eccentric anomaly
295.16451°
Mean motion
3.07253 °/min
Orbital period
117.17 mins
BSTAR
0.0001435
Loading maneuver chart data...
Computing Atmospheric mass density...
Loading historical data...
Loading historical data...
Loading historical data...
Loading historical data...
Loading historical data...
Loading historical data...
Loading historical data...

Documentation

Showing up to 5 results
|